DW7013 Weather Reports


Display with metric or nautical units.
time (UTC)temp
F
wind
direction
speed
MPH
gust
MPH
rain 1hr
in
rain 24hr
in
rain mn
in
humidity
%
barometer
mb
20260508045227 41 355 0.0 2.0 0.00 0.03 0.00 94 1015.6
20260508044720 41 355 0.0 2.0 0.00 0.03 0.00 94 1015.6
20260508044227 41 346 0.0 0.0 0.00 0.03 0.00 94 1015.7
20260508043720 41 346 0.0 0.0 0.00 0.03 0.00 94 1015.7
20260508043220 41 346 0.0 0.0 0.00 0.04 0.00 94 1015.6
20260508042720 41 346 0.0 1.0 0.00 0.04 0.00 94 1015.7
20260508042219 41 346 0.0 1.0 0.00 0.04 0.00 94 1015.6
20260508041732 41 5 0.0 1.0 0.00 0.04 0.00 94 1015.5
20260508041206 41 341 0.0 0.0 0.00 0.04 0.00 94 1015.5
20260508040725 41 33 0.0 0.0 0.00 0.05 0.00 94 1015.4
20260508040215 41 5 0.0 3.0 0.00 0.05 0.00 94 1015.5
20260508035728 41 18 0.0 3.0 0.00 0.05 0.00 94 1015.5
20260508035230 41 0 0.0 3.0 0.00 0.06 0.00 94 1015.4
20260508034720 41 200 0.0 0.0 0.00 0.06 0.00 94 1015.5
20260508034229 41 199 0.0 0.0 0.00 0.06 0.00 94 1015.5
20260508033713 41 199 0.0 0.0 0.00 0.07 0.00 94 1015.5
20260508033228 41 200 0.0 0.0 0.00 0.07 0.00 94 1015.5
20260508032730 41 200 0.0 0.0 0.00 0.08 0.00 94 1015.4
20260508032228 41 200 0.0 0.0 0.00 0.08 0.00 94 1015.5
20260508031219 41 199 0.0 0.0 0.00 0.09 0.00 94 1015.4
20260508030716 41 199 0.0 0.0 0.00 0.09 0.00 94 1015.4
20260508030255 41 200 0.0 0.0 0.00 0.09 0.00 93 1015.4
20260508025712 41 200 0.0 0.0 0.00 0.10 0.00 93 1015.4
20260508025213 41 199 0.0 0.0 0.00 0.11 0.00 93 1015.3
20260508024218 41 200 0.0 0.0 0.00 0.13 0.00 93 1015.3
20260508023221 41 200 0.0 0.0 0.00 0.13 0.00 93 1015.4
20260508022215 41 199 0.0 0.0 0.00 0.14 0.00 93 1015.5
20260508021730 41 200 0.0 0.0 0.00 0.15 0.00 93 1015.5
20260508021226 41 199 0.0 0.0 0.00 0.16 0.00 93 1015.5
20260508015718 41 199 0.0 0.0 0.00 0.17 0.00 93 1015.4
20260508015223 41 199 0.0 0.0 0.00 0.17 0.00 93 1015.5
20260508014708 41 200 0.0 0.0 0.00 0.18 0.00 93 1015.4
20260508014227 41 199 0.0 0.0 0.00 0.18 0.00 93 1015.4
20260508013715 41 200 0.0 0.0 0.00 0.19 0.00 93 1015.3
20260508013215 41 199 0.0 0.0 0.00 0.19 0.00 92 1015.3
20260508012711 41 199 0.0 0.0 0.00 0.19 0.00 92 1015.3
20260508012211 41 199 0.0 0.0 0.00 0.19 0.00 92 1015.3
20260508011721 41 200 0.0 0.0 0.00 0.19 0.00 92 1015.3
20260508010720 41 200 0.0 0.0 0.00 0.20 0.00 92 1015.3
20260508010222 41 200 0.0 0.0 0.00 0.20 0.00 92 1015.3
20260508005731 41 200 0.0 0.0 0.00 0.20 0.00 92 1015.4
20260508005221 41 200 0.0 0.0 0.00 0.20 0.00 92 1015.4
20260508004740 41 199 0.0 0.0 0.00 0.20 0.00 92 1015.3
20260508004229 41 199 0.0 0.0 0.00 0.20 0.00 92 1015.4
20260508003714 41 199 0.0 0.0 0.00 0.20 0.00 92 1015.4
20260508003227 41 200 0.0 0.0 0.00 0.20 0.00 91 1015.4
20260508002718 41 200 0.0 0.0 0.00 0.20 0.00 91 1015.4
20260508002217 41 199 0.0 0.0 0.00 0.20 0.00 91 1015.4
20260508001713 41 199 0.0 0.0 0.00 0.20 0.00 91 1015.4
20260508001223 41 199 0.0 0.0 0.00 0.20 0.00 91 1015.4
20260508000720 41 200 0.0 0.0 0.00 0.20 0.00 91 1015.5
20260508000206 41 200 0.0 0.0 0.00 0.20 0.00 91 1015.5
20260507235726 41 200 0.0 0.0 0.00 0.20 0.00 91 1015.5
20260507235219 42 200 0.0 0.0 0.00 0.20 0.00 91 1015.6
20260507234725 42 200 0.0 0.0 0.00 0.20 0.00 91 1015.7
20260507234229 41 199 0.0 0.0 0.00 0.20 0.00 91 1015.7
20260507233231 42 200 0.0 0.0 0.00 0.20 0.00 91 1015.9
20260507232219 42 200 0.0 0.0 0.00 0.21 0.00 90 1016.1
20260507231717 42 200 0.0 0.0 0.00 0.21 0.00 91 1016.1
20260507231229 42 200 0.0 0.0 0.00 0.21 0.00 90 1016.2
20260507230729 42 200 0.0 0.0 0.00 0.21 0.00 90 1016.1
20260507230247 42 154 0.0 0.0 0.00 0.22 0.00 90 1016.1
20260507225722 42 154 0.0 0.0 0.00 0.22 0.00 90 1016.1
20260507225231 42 154 0.0 0.0 0.00 0.22 0.00 90 1016.2
20260507224733 42 154 0.0 0.0 0.00 0.23 0.00 90 1016.2
20260507224231 42 140 0.0 0.0 0.00 0.23 0.00 90 1016.1
20260507223729 42 140 0.0 0.0 0.00 0.23 0.00 90 1016.1
20260507223219 42 140 0.0 0.0 0.00 0.24 0.00 90 1016.1
20260507222707 42 140 0.0 0.0 0.00 0.24 0.00 90 1016.2
20260507222227 42 141 0.0 0.0 0.00 0.24 0.00 90 1016.2
20260507221728 42 142 0.0 0.0 0.00 0.25 0.00 89 1016.2
20260507221217 42 142 0.0 0.0 0.00 0.25 0.00 89 1016.2
20260507220729 42 66 0.0 0.0 0.00 0.25 0.00 89 1016.4
20260507220216 42 66 0.0 0.0 0.00 0.25 0.25 90 1016.4
20260507215725 42 66 0.0 1.0 0.00 0.25 0.25 90 1016.2
20260507215226 42 94 0.0 1.0 0.00 0.25 0.25 90 1016.4
20260507214209 42 316 0.0 0.0 0.00 0.25 0.25 89 1016.1
20260507213710 43 53 0.0 0.0 0.00 0.25 0.25 89 1016.2
20260507213216 43 52 0.0 0.0 0.00 0.25 0.25 89 1016.1
20260507212710 43 53 0.0 0.0 0.00 0.25 0.25 89 1016.1
20260507211725 43 53 0.0 0.0 0.00 0.25 0.25 89 1016.2
20260507211241 43 53 0.0 0.0 0.00 0.25 0.25 89 1016.1
20260507210714 43 52 0.0 0.0 0.00 0.25 0.25 89 1016.1
20260507205221 43 19 0.0 0.0 0.00 0.25 0.25 88 1016.1
20260507204720 43 343 0.0 0.0 0.00 0.25 0.25 88 1016.1
20260507204214 44 97 0.0 0.0 0.00 0.25 0.25 88 1016.1
20260507203719 44 338 0.0 0.0 0.00 0.25 0.25 88 1016.1
20260507203223 44 338 0.0 0.0 0.00 0.26 0.25 88 1016.0
20260507202728 44 5 0.0 0.0 0.00 0.26 0.25 88 1015.9
20260507202217 44 12 0.0 0.0 0.00 0.26 0.25 87 1015.9
20260507201724 44 5 0.0 0.0 0.00 0.26 0.25 87 1015.9
20260507201217 44 0 0.0 0.0 0.00 0.27 0.25 87 1015.9
20260507200721 44 355 0.0 3.0 0.00 0.27 0.25 87 1015.8
20260507200209 45 355 0.0 4.0 0.00 0.27 0.25 87 1015.9
20260507195732 45 355 0.0 4.0 0.00 0.27 0.25 87 1015.9
20260507195225 45 323 0.0 0.0 0.00 0.27 0.25 87 1015.7
20260507194712 45 355 0.0 0.0 0.00 0.27 0.25 86 1015.7
20260507194212 45 355 0.0 0.0 0.00 0.28 0.25 86 1015.6
20260507193721 46 355 0.0 0.0 0.00 0.28 0.25 86 1015.6
20260507193225 46 355 0.0 0.0 0.00 0.28 0.25 86 1015.6
20260507192716 46 355 0.0 2.0 0.00 0.28 0.25 85 1015.5
20260507192209 46 355 0.0 2.0 0.00 0.28 0.25 85 1015.4
20260507191721 47 355 0.0 3.0 0.00 0.28 0.25 85 1015.2
20260507191215 47 350 0.0 3.0 0.00 0.28 0.25 84 1015.3
20260507190720 47 355 0.0 3.0 0.00 0.28 0.25 84 1015.2
20260507190225 47 331 0.0 0.0 0.00 0.28 0.25 84 1015.3
20260507185729 48 5 0.0 7.0 0.00 0.28 0.25 84 1015.2
20260507185220 48 5 1.0 7.0 0.00 0.29 0.25 83 1015.2
20260507184727 49 342 1.0 7.0 0.00 0.29 0.25 82 1015.1
20260507184224 49 343 1.0 0.0 0.00 0.29 0.25 82 1015.0
20260507183720 49 336 0.0 0.0 0.00 0.29 0.25 83 1015.1
20260507183217 50 355 0.0 0.0 0.00 0.30 0.25 82 1015.0
20260507182717 50 355 0.0 0.0 0.00 0.30 0.25 82 1015.0
20260507181716 50 338 0.0 0.0 0.00 0.31 0.25 80 1015.1
20260507181222 51 335 0.0 0.0 0.00 0.31 0.25 80 1015.1
20260507180227 51 315 0.0 0.0 0.00 0.33 0.25 78 1015.1
20260507175713 52 325 0.0 0.0 0.00 0.33 0.25 77 1015.1
20260507175228 52 319 0.0 0.0 0.00 0.34 0.25 76 1015.1
20260507174732 52 315 0.0 0.0 0.00 0.35 0.25 76 1015.0
20260507174211 52 324 0.0 0.0 0.00 0.35 0.25 75 1015.0
20260507173712 53 334 0.0 0.0 0.00 0.35 0.25 74 1015.0
20260507173216 53 5 0.0 3.0 0.00 0.36 0.25 73 1015.0
20260507172719 53 16 0.0 3.0 0.00 0.37 0.25 72 1015.0
20260507172218 54 319 0.0 3.0 0.00 0.37 0.25 71 1014.8
20260507171725 55 318 0.0 3.0 0.00 0.38 0.25 71 1014.8
20260507171216 55 317 0.0 7.0 0.00 0.39 0.25 70 1014.7
20260507170711 55 344 1.0 7.0 0.00 0.39 0.25 70 1014.6
20260507170225 55 315 1.0 7.0 0.00 0.39 0.25 68 1014.6
20260507165724 55 296 1.0 7.0 0.00 0.39 0.25 69 1014.6
20260507165209 55 297 3.0 7.0 0.00 0.40 0.25 67 1014.6
20260507164723 55 288 3.0 7.0 0.00 0.41 0.25 68 1014.6
20260507164214 55 290 3.0 6.0 0.00 0.42 0.25 66 1014.7
20260507163719 56 296 3.0 6.0 0.00 0.43 0.25 65 1014.6
20260507163219 55 285 1.0 7.0 0.00 0.43 0.25 64 1014.6
20260507162220 55 273 2.0 8.0 0.00 0.43 0.25 62 1014.6
20260507161209 55 292 3.0 12.0 0.00 0.44 0.25 62 1014.6
20260507160707 56 254 4.0 12.0 0.00 0.45 0.25 62 1014.6
20260507160224 55 332 3.0 12.0 0.00 0.45 0.25 62 1014.6
20260507155724 55 333 1.0 6.0 0.00 0.46 0.25 64 1014.6
20260507155219 55 355 1.0 6.0 0.00 0.46 0.25 62 1014.6
20260507154730 55 320 1.0 5.0 0.00 0.46 0.25 64 1014.6
20260507154224 55 271 2.0 7.0 0.00 0.46 0.25 66 1014.7
20260507153728 55 312 2.0 7.0 0.00 0.46 0.25 65 1014.7
20260507153214 55 336 2.0 5.0 0.00 0.46 0.25 66 1014.7
20260507152722 55 289 2.0 5.0 0.00 0.46 0.25 67 1014.7
20260507151709 55 318 2.0 10.0 0.00 0.46 0.25 65 1014.7
20260507151216 55 306 4.0 10.0 0.00 0.46 0.25 65 1014.6
20260507150730 56 326 4.0 10.0 0.00 0.47 0.25 65 1014.7
20260507150219 56 331 3.0 10.0 0.00 0.47 0.25 65 1014.7
20260507145725 56 331 1.0 6.0 0.00 0.47 0.25 65 1014.7
20260507145211 56 309 1.0 10.0 0.00 0.48 0.25 68 1014.7
20260507144213 56 24 2.0 10.0 0.00 0.49 0.25 66 1014.7
20260507143716 56 324 0.0 5.0 0.00 0.50 0.25 69 1014.7
20260507143223 55 84 0.0 2.0 0.00 0.50 0.25 69 1014.7
20260507142725 55 246 0.0 5.0 0.00 0.50 0.25 76 1014.7
20260507141716 53 261 0.0 3.0 0.00 0.50 0.25 73 1014.8
20260507140221 52 201 0.0 4.0 0.00 0.51 0.25 76 1015.0
20260507135719 52 263 0.0 6.0 0.00 0.52 0.25 76 1015.0
20260507135225 51 319 1.0 6.0 0.00 0.52 0.25 78 1015.0
20260507134725 51 286 1.0 6.0 0.00 0.53 0.25 79 1015.0
20260507134220 51 331 0.0 4.0 0.00 0.53 0.25 80 1015.1
20260507133722 51 331 0.0 4.0 0.00 0.54 0.25 79 1015.1
20260507133215 51 5 1.0 4.0 0.00 0.55 0.25 79 1015.1
20260507132722 51 315 1.0 4.0 0.00 0.55 0.25 79 1015.1
20260507132221 51 309 0.0 4.0 0.00 0.55 0.25 79 1015.0
20260507131716 51 349 0.0 5.0 0.00 0.56 0.25 79 1015.0
20260507131218 51 277 0.0 5.0 0.00 0.56 0.25 78 1015.0
20260507130727 51 261 1.0 4.0 0.00 0.56 0.25 79 1015.1
20260507130223 51 172 1.0 4.0 0.00 0.56 0.25 78 1015.0
20260507125724 51 165 1.0 4.0 0.00 0.57 0.25 78 1015.0
20260507124719 51 163 0.0 5.0 0.00 0.61 0.25 77 1015.0
20260507124217 51 169 1.0 5.0 0.00 0.61 0.25 77 1015.0
20260507123713 51 151 1.0 0.0 0.00 0.61 0.25 78 1015.0
20260507123217 51 19 0.0 0.0 0.00 0.62 0.25 78 1015.0
20260507122729 51 308 0.0 1.0 0.00 0.63 0.25 77 1015.0
20260507122230 51 331 0.0 2.0 0.00 0.65 0.25 78 1015.0
20260507120708 50 348 0.0 2.0 0.00 0.65 0.25 80 1014.8
20260507120216 50 115 0.0 3.0 0.00 0.65 0.25 81 1014.8
20260507115719 50 119 0.0 3.0 0.00 0.65 0.25 81 1014.8
20260507115212 50 131 0.0 0.0 0.00 0.66 0.25 81 1014.8
20260507114718 50 161 0.0 2.0 0.00 0.66 0.25 80 1014.8
20260507114216 50 35 0.0 2.0 0.00 0.66 0.25 80 1014.8
20260507113718 50 351 0.0 2.0 0.00 0.67 0.25 81 1014.8
20260507113220 50 171 0.0 4.0 0.00 0.68 0.25 82 1014.8
20260507112709 49 161 0.0 4.0 0.00 0.68 0.25 82 1015.0
20260507112217 49 191 1.0 4.0 0.00 0.68 0.25 83 1015.0
20260507111721 49 150 1.0 4.0 0.00 0.69 0.25 84 1015.0
20260507111222 49 174 0.0 4.0 0.00 0.69 0.25 84 1015.0
20260507110223 49 113 0.0 3.0 0.00 0.69 0.25 83 1014.8
20260507105722 49 181 0.0 3.0 0.00 0.69 0.25 83 1015.0
20260507105220 49 141 0.0 3.0 0.00 0.69 0.25 84 1014.8
20260507104717 49 162 0.0 0.0 0.00 0.69 0.25 84 1014.8
20260507104222 49 129 0.0 0.0 0.00 0.69 0.25 84 1014.8
20260507103713 49 130 0.0 0.0 0.00 0.70 0.25 85 1014.8
20260507103218 49 96 0.0 0.0 0.00 0.70 0.25 86 1014.8
20260507102208 48 129 0.0 2.0 0.00 0.71 0.25 86 1015.0
20260507101715 48 140 0.0 3.0 0.00 0.71 0.25 87 1015.0
20260507101248 47 196 0.0 3.0 0.00 0.71 0.25 87 1015.1
20260507100733 47 80 0.0 3.0 0.00 0.71 0.25 87 1015.0
20260507100224 47 119 0.0 3.0 0.00 0.71 0.25 87 1015.0
20260507095726 47 85 0.0 4.0 0.00 0.71 0.25 90 1015.0
20260507094713 47 173 1.0 5.0 0.00 0.71 0.25 90 1015.0
20260507094224 47 209 2.0 5.0 0.00 0.71 0.25 90 1015.0
20260507092722 46 172 1.0 6.0 0.00 0.71 0.25 92 1014.8
20260507092235 46 189 2.0 6.0 0.00 0.71 0.25 92 1014.7
20260507091752 46 152 1.0 6.0 0.00 0.71 0.25 93 1014.7
20260507090724 46 160 0.0 5.0 0.00 0.71 0.25 93 1014.6
20260507090218 46 120 0.0 4.0 0.00 0.71 0.25 93 1014.6
20260507085720 46 166 0.0 4.0 0.00 0.71 0.25 93 1014.5
20260507084713 46 164 0.0 3.0 0.00 0.72 0.25 94 1014.5
20260507084210 46 152 0.0 3.0 0.00 0.72 0.25 94 1014.4
20260507083720 46 130 0.0 5.0 0.00 0.72 0.25 94 1014.4
20260507083213 46 124 1.0 5.0 0.00 0.72 0.25 95 1014.4
20260507082745 45 116 1.0 3.0 0.00 0.72 0.25 95 1014.4
20260507082214 45 138 1.0 3.0 0.00 0.72 0.25 95 1014.3
20260507081726 45 161 0.0 3.0 0.00 0.72 0.25 95 1014.4
20260507081214 45 140 0.0 5.0 0.00 0.72 0.25 95 1014.3
20260507080710 45 161 0.0 5.0 0.00 0.72 0.25 95 1014.3
20260507080209 45 112 1.0 5.0 0.00 0.72 0.25 95 1014.2
20260507075725 45 123 0.0 4.0 0.00 0.72 0.25 95 1014.2
20260507075219 45 140 0.0 5.0 0.00 0.72 0.25 95 1014.2
20260507074710 45 134 1.0 6.0 0.00 0.72 0.25 95 1014.2
20260507074213 44 144 1.0 6.0 0.01 0.72 0.25 95 1014.1
20260507072721 45 126 1.0 7.0 0.01 0.72 0.25 96 1014.0
20260507072228 45 188 1.0 5.0 0.01 0.72 0.25 96 1014.0
20260507071214 44 136 1.0 5.0 0.01 0.72 0.25 96 1013.9
20260507070727 44 140 1.0 5.0 0.01 0.72 0.25 96 1013.8
20260507070210 44 142 1.0 5.0 0.01 0.72 0.25 96 1013.7
20260507065720 44 126 1.0 4.0 0.02 0.72 0.25 96 1013.8
20260507065220 44 148 1.0 4.0 0.02 0.72 0.25 96 1013.8
20260507064720 44 121 0.0 3.0 0.01 0.71 0.24 96 1013.7
20260507064225 44 170 0.0 3.0 0.01 0.71 0.24 96 1013.7
20260507063709 44 141 0.0 3.0 0.01 0.71 0.24 96 1013.8
20260507062710 44 113 0.0 0.0 0.01 0.71 0.24 96 1013.7
20260507062221 44 140 0.0 3.0 0.01 0.71 0.24 96 1013.7
20260507061714 44 169 0.0 3.0 0.01 0.71 0.24 96 1013.7
20260507061209 44 166 0.0 3.0 0.02 0.71 0.24 96 1013.5
20260507060219 44 138 0.0 3.0 0.02 0.71 0.24 96 1013.3
20260507055723 44 140 0.0 5.0 0.01 0.70 0.24 96 1013.3
20260507055230 44 161 1.0 5.0 0.02 0.70 0.24 96 1013.3
20260507054217 44 149 0.0 4.0 0.02 0.70 0.24 96 1013.2
20260507053725 44 155 0.0 3.0 0.02 0.70 0.24 96 1013.1
20260507053220 44 133 0.0 0.0 0.02 0.70 0.24 96 1013.1
20260507051722 44 68 0.0 0.0 0.02 0.70 0.24 96 1012.9
20260507051224 44 109 0.0 0.0 0.02 0.69 0.23 96 1012.9
20260507050713 44 109 0.0 0.0 0.02 0.69 0.23 96 1012.9
20260507050210 44 156 0.0 0.0 0.02 0.69 0.23 96 1012.8